www.pogodaiklimat.ru
ПОГОДА в Колкате
Время
(UTC), дата
03 20.02
06 20.02
09 20.02
12 20.02
15 20.02
18 20.02
21 20.02
00 21.02
03 21.02
06 21.02
09 21.02
12 21.02
15 21.02
18 21.02
21 21.02
00 22.02
03 22.02
06 22.02
09 22.02
12 22.02
15 22.02
18 22.02
21 22.02
00 23.02
03 23.02
06 23.02
09 23.02
12 23.02
15 23.02
18 23.02
21 23.02
00 24.02
03 24.02
06 24.02
09 24.02
12 24.02
15 24.02
18 24.02
21 24.02
00 25.02
03 25.02
06 25.02
09 25.02
12 25.02
15 25.02
18 25.02
21 25.02
00 26.02
03 26.02
06 26.02
09 26.02
12 26.02
15 26.02
18 26.02
21 26.02
00 27.02
Ветер
(напр.,м/с)
Видим. Явления Облачность Т
(С)
Тd
(С)
f
(%)
Тe
(С)
Тes
(С)
Комфортность P
(гПа)
Po
(гПа)
Тmin
(С)
Tmax
(С)
R
(мм)
R24
(мм)
S
(см)
З 1 2000 м дымка 10/6 600 м
[Sc Ac trans]
+22.8 +20.3 86 +30 +31 очень
душно
1018.2 1017.5 +20.5
ЮЗ 2 4000 м 4/3 600 м
[Sc diur, vesp Ac trans]
+28.8 +18.9 55 +34 +44 очень
душно
1017.1 1016.4
Ю 2 4000 м 3/0
[Ci fib]
+29.0 +15.3 43 +32 +39 душно 1014.3 1013.6
ЮЗ 1 4000 м 4/0 2000 м
[Ac trans Ci fib]
+27.2 +14.2 45 +29 +29 жарко 1014.7 1014.0 +31.0
ЮЗ 2 4000 м ясно +24.0 +16.1 61 +27 +27 жарко 1016.9 1016.2
Ю 1 2000 м мгла ясно +21.6 +17.4 77 +26 +26 душно 1017.1 1016.4
штиль 0 2000 м мгла ясно +21.0 +17.8 82 +25 +25 комфорт 1016.4 1015.7
штиль 0 1000 м дымка ясно +19.4 +18.1 92 +21 +21 комфорт 1017.4 1016.7
С 1 2000 м мгла ясно +22.0 +19.8 87 +28 +36 душно 1020.1 1019.4 +18.8
С 2 2000 м мгла 4/0 600 м
[Ac As]
+28.2 +18.6 56 +33 +46 очень
душно
1019.5 1018.8
В 2 4000 м 3/0
[Ac trans]
+29.4 +12.9 36 +31 +37 жарко 1016.5 1015.8
штиль 0 2000 м мгла 3/0
[Ac trans]
+26.4 +14.8 49 +29 +29 жарко 1016.7 1016.0 +30.0
штиль 0 2000 м мгла 3/0 2000 м
[Ac trans]
+22.4 +16.1 68 +27 +27 душно 1018.7 1018.0
С 1 2000 м мгла 5/3 600 м
[Sc Ac trans]
+21.0 +16.7 76 +26 +26 душно 1019.7 1019.0
штиль 0 2000 м дымка 4/1 600 м
[Sc Ac trans]
+20.4 +16.1 76 +23 +23 комфорт 1017.8 1017.1
штиль 0 2000 м дымка 5/3 600 м
[Sc Ac trans]
+18.6 +15.6 83 +19 +19 1018.0 1017.3
С 2 2000 м дымка 3/0
[Ac trans]
+22.2 +15.2 65 +26 +32 душно 1020.1 1019.4 +18.0
С 2 2000 м мгла ясно +29.6 +14.5 40 +32 +49 душно 1019.5 1018.8
С 3 4000 м ясно +29.8 +10.6 30 +30 +37 жарко 1016.2 1015.5
С 1 2000 м мгла 3/0
[Ac trans]
+27.0 +15.2 48 +30 +30 душно 1016.0 1015.3 +30.6
штиль 0 2000 м мгла 3/0
[Ac trans]
+23.2 +16.7 67 +28 +28 душно 1017.7 1017.0
штиль 0 2000 м мгла 3/0
[Ac trans]
+21.2 +17.0 77 +25 +25 комфорт 1017.3 1016.6
штиль 0 2000 м мгла 3/0
[Ac trans]
+19.6 +17.0 85 +22 +22 комфорт 1017.1 1016.4
В 1 2000 м мгла ясно +20.0 +17.4 85 +24 +24 комфорт 1016.6 1015.9
В 2 4000 м ясно +22.8 +16.6 68 +27 +35 душно 1018.8 1018.1 +19.4
С 1 4000 м ясно +28.8 +17.1 49 +33 +51 опасность
солнечного
удара
1017.9 1017.2
С 1 4000 м 8/5 600 м
[Sc Ac trans]
+29.4 +15.0 42 +32 +35 душно 1014.6 1013.9
штиль 0 4000 м 1/1 600 м
[Sc]
+27.2 +15.8 50 +30 +30 душно 1014.1 1013.4 +30.8
штиль 0 2000 м мгла ясно +23.6 +17.9 70 +28 +28 душно 1015.4 1014.7
штиль 0 2000 м мгла 4/1 600 м
[Sc Ac trans]
+21.6 +17.4 77 +26 +26 душно 1014.9 1014.2
штиль 0 2000 м мгла 5/3 600 м
[Sc Ac trans]
+20.8 +17.2 80 +24 +24 комфорт 1014.9 1014.2
ЮВ 1 2000 м мгла 9/4 600 м
[Sc Ac trans]
+20.2 +17.6 85 +24 +24 комфорт 1013.0 1012.3
С 1 2000 м дождь 10/5 600 м
[Frnb As op]
+22.0 +19.8 87 +28 +29 душно 1016.7 1016.0 +19.5 0.2
С 2 2000 м мгла {дождь} 10/4 600 м
[Sc As op]
+26.8 +16.9 55 +31 +33 душно 1016.0 1015.3
З 1 2000 м мгла 10/6 300 м
[St As op]
+26.2 +15.7 52 +29 +30 жарко 1012.9 1012.2
штиль 0 2000 м мгла 9/6 600 м
[Sc diur, vesp Ac trans]
+25.2 +17.9 64 +30 +30 душно 1011.8 1011.1 +27.1
З 1 2000 м мгла 4/1 600 м
[Sc diur, vesp Ac As]
+22.8 +19.0 79 +29 +29 очень
душно
1013.4 1012.7
штиль 0 1000 м дымка 9/5 600 м
[Sc diur, vesp Ac As]
+21.6 +19.1 86 +27 +27 душно 1013.6 1012.9
штиль 0 1000 м дымка 9/5 600 м
[Sc Ac As]
+21.8 +19.3 86 +27 +27 душно 1013.4 1012.7
З 2 1000 м слаб. дождь 10/6 600 м
[Sc Ac As]
+21.6 +18.1 80 +26 +26 душно 1013.4 1012.7 0.0
З 1 2000 м слаб. дождь 10/5 600 м
[Frnb Ac As]
+19.6 +18.3 92 +24 +25 комфорт 1016.1 1015.4 +18.8 2
Ю 1 2000 м слаб. дождь 10/6 600 м
[Frnb Ac As]
+21.2 +19.0 87 +26 +28 душно 1015.5 1014.8 1
Ю 1 2000 м в посл. час дождь 10/6 300 м
[St Ac As]
+21.8 +17.3 76 +26 +27 душно 1011.9 1011.2 1
Ю 1 2000 м мгла {дождь} 10/6 300 м
[Sc diur, vesp Ac As]
+21.2 +16.6 75 +25 +25 комфорт 1011.9 1011.2 +22.6 1
СЗ 2 2000 м мгла 9/4 600 м
[Sc Ac trans]
+19.8 +17.5 87 +23 +23 комфорт 1014.4 1013.7 1
штиль 0 2000 м мгла 8/4 600 м
[Sc Ac trans]
+18.6 +16.6 88 +19 +19 1014.4 1013.7 1
штиль 0 2000 м мгла 9/5 600 м
[Sc Ac trans]
+18.6 +16.6 88 +19 +19 1014.0 1013.3 1
штиль 0 2000 м мгла 10/6 300 м
[Sc diur, vesp Ac As]
+18.4 +16.7 90 +19 +19 1013.8 1013.1 1
З 1 2000 м мгла 3/1 600 м
[Sc Ac trans]
+20.4 +16.4 78 +25 +32 комфорт 1015.4 1014.7 +17.8 1
СЗ 2 4000 м 3/3 600 м
[Sc diur, vesp]
+25.8 +14.9 51 +29 +41 душно 1014.6 1013.9
С 1 4000 м 5/4 600 м
[Sc diur, vesp]
+26.8 +15.7 51 +30 +35 душно 1012.1 1011.4
ЮВ 1 4000 м 3/3 600 м
[Sc diur, vesp]
+24.6 +16.5 61 +28 +28 душно 1012.0 1011.3 +27.5
ЮЗ 2 4000 м 5/5 600 м
[Sc diur, vesp]
+23.2 +17.8 72 +29 +29 душно 1014.4 1013.7
Ю 1 2000 м мгла 10/6 600 м
[Sc diur, vesp Ac trans]
+21.8 +19.0 84 +27 +27 душно 1015.1 1014.4 0.0
Ю 1 2000 м дымка 10/6 600 м
[Sc diur, vesp As op]
+21.0 +19.1 89 +27 +27 душно 1014.2 1013.5 0.0
Ю 1 2000 м мгла 9/6 600 м
[Sc As op]
+20.0 +19.4 96 +24 +24 комфорт 1014.1 1013.4 0.0
Местоположение метеостанции Колката (Западная Бенгалия, Индия): широта 22.53 долгота 88.33 высота над уровнем моря 6 м.
В архиве по умолчанию представлена погода в Колкате за последнюю неделю. Архивные данные за месяц целиком и за предыдущие месяцы, начиная с января 2011 года, Вы можете получить, выбрав интересующий диапазон дат из раскрывающегося списка и нажав кнопку "Найти!".
*Определитесь, кто Вы:
Внимание! Время в таблицах - всемирное. Для получения местного времени необходимо прибавить поправку, которая равна 5.5 ч.
Смотрите также архив погоды в соседних городах и на ближайших метеорологических станциях:
Партнеры нашего сайта:      
Пояснения к столбцам:
  • Ветер - указаны скорость ветра в м/с - средняя за 10 мин, порывы в срок и между сроками (в фигурных скобках) и направление, откуда дует ветер: С - северный,
  • СВ - северо-восточный, В - восточный, ЮВ - юго-восточный, Ю - южный, ЮЗ - юго-западный, З - западный, СЗ - северо-западный.
  • Видимость - горизонтальная дальность видимости в метрах или километрах. При видимости от 1 до 10 км при отсутствии осадков обычно наблюдается дымка, при ухудшении видимости до 1 км и менее - туман. В сухую погоду видимость может ухудшаться дымом, пылью или мглою.
  • Явления - указаны атмосферные явления, наблюдавшиеся в срок или в последний час перед сроком; фигурными скобками обозначены явления, наблюдавшиеся между сроками (за 1-3 часа до срока); квадратными скобками обозначены град или гололедные отложения с указанием их диаметра в мм.
  • Облачность - указаны через наклонную черту общая и нижняя облачность в баллах и высота нижней границы облаков в метрах; квадратными скобками обозначены формы облаков: Ci - перистые, Cs - перисто-слоистые, Cc - перисто-кучевые, Ac - высококучевые, As - высокослоистые, Sc - слоисто-кучевые, Ns - слоисто-дождевые, Cu - кучевые, Cb - кучево-дождевые. Подробнее классификацию облаков см. в Атласе облаков (PDF).
  • T - Температура воздуха - температура, измеренная на высоте 2 м над землей.
  • Td - Температура точки росы - температура, при понижении до которой содержащийся в воздухе водяной пар достигнет насыщения.
  • f - Относительная влажность воздуха - влажноcть воздуха, измеренная на высоте 2 м над землей.
  • Te - Эффективная температура - температура, которую ощущает одетый по сезону человек в тени. Характеристика душности погоды. При расчете учитывается влияние влажности воздуха и скорости ветра на теплоощущения человека.
  • Tes - Эффективная температура на солнце - температура, которую ощущает человек, с поправкой на солнечный нагрев. Характеристика знойности погоды. Зависит от высоты солнца над горизонтом, облачности и скорости ветра. Ночью, в пасмурную погоду, а также при ветре 12 м/с и более поправка равна нулю.
  • P - Атмосферное давление - приведенное к уровню моря атмосферное давление.
  • Po - Атмосферное давление - измеренное на уровне метеостанции атмосферное давление.
  • Tmin - Минимальная температура - минимум температуры воздуха на высоте 2 м над землей.
  • Tmax - Максимальная температура - максимум температуры воздуха на высоте 2 м над землей.
  • R - Количество осадков - Количество выпавших осадков за период времени, мм. При наведении курсора мыши на число - период времени, за который выпало указанное количество осадков.
  • R24 - Количество осадков - Количество выпавших осадков за 24 часа, мм.
  • S - Снежный покров - Высота снежного покрова, см. При наведении курсора мыши на число - состояние снежного покрова и степень покрытия местности в баллах.